Other Surface Observations
Issued by NWS

Home | Current Version | Previous Version | Text Only | Print | Product List | Glossary On
Versions: 1 2 3 4 5 6 7 8 9 10 11 12 13 14 15 16 17 18 19 20 21 22 23 24 25 26 27 28 29 30 31 32 33 34 35 36 37 38 39 40 41 42 43 44 45 46 47 48 49 50
000
SXUS52 KTAE 220118
OSOTAE
OSOTAE
North Florida/South Alabama/Southwest Georgia Weather Roundup
National Weather Service Tallahassee Florida
900 PM EDT TUE OCT 21 2014

Note: "fair" indicates few or no clouds below 12,000 feet with no
significant weather and/or obstructions to visibility.

!FLZ017-115-028-034-025-220200
...North Florida...

CITY           SKY/WX    TMP DP  RH WIND       PRES   REMARKS
TALLAHASSEE    PTCLDY    64  54  69 CALM      29.96R
APALACHICOLA   CLEAR     70  62  76 CALM      29.97R
PERRY          CLEAR     63  59  88 CALM      29.97R
CROSS CITY       N/A     69  65  86 CALM      29.95R
JACKSONVILLE   CLEAR     67  64  90 CALM      29.94R
$$

!FLZ112-006-005-002-011-220200
...Florida Panhandle...

CITY           SKY/WX    TMP DP  RH WIND       PRES   REMARKS
MARIANNA       CLEAR     64  60  87 CALM      29.97R
BONIFAY        NOT AVBL
PANAMA CITY NW FAIR      62  57  83 CALM      29.96R
TYNDALL AFB    CLEAR     64  58  80 CALM      29.97R
TYND DRONE APT NOT AVBL
DE FUNIAK SPR  FAIR      65  56  74 NW3       29.99R
EGLIN AFB      PTCLDY    66  57  73 NW2       29.98R
DESTIN         CLEAR     70  60  70 CALM      29.98R
HURLBURT       CLEAR     64  57  78 N2        29.97R
CRESTVIEW      CLEAR     59  55  87 CALM      30.00R
PENSACOLA      CLEAR     67  54  63 NW3       29.98R
$$

!ALZ063-066-220200
...South Alabama...

CITY           SKY/WX    TMP DP  RH WIND       PRES   REMARKS
DOTHAN         CLEAR     65  55  70 NW5       30.02R
OZARK CAIRNS   CLEAR     69  55  60 NW5       29.99R
FT RUCKER HELI CLEAR     59  56  89 NE3       29.98R
RUCKER HELI 3  FAIR      62  56  82 N2        30.01R
RUCKER HELI 2  FAIR      64  55  72 N5        29.99R
FLORALA APT    CLEAR     62  54  74 CALM      30.01R
ANDALUSIA      CLEAR     65  55  70 NW3       29.99R
TROY           CLEAR     60  54  80 CALM      29.99S
EUFALA           N/A     58  54  86 CALM      29.98R
MOBILE         PTCLDY    60  56  86 CALM      30.01R
$$

!GAZ120>161-220200
...Southwest and South Central Georgia...

CITY           SKY/WX    TMP DP  RH WIND       PRES   REMARKS
THOMASVILLE    FAIR      63  59  88 CALM      29.97R
BAINBRIDGE     CLEAR     72  55  56 N5        29.97R
MOODY AFB      CLEAR     61  54  77 CALM      29.96R
VALDOSTA       CLEAR     59  52  77 CALM      29.96R
MOULTRIE       CLEAR     63  59  88 CALM      29.97S
BLAKELY        CLEAR     61  57  88 CALM        N/A
ALBANY         CLEAR     61  56  83 CALM      29.99R
TIFTON         FAIR      63  55  75 CALM      29.97R
FITZGERALD     FAIR      62  56  79 CALM      29.99R
CORDELE        FAIR      62  56  81 CALM      29.98R
AMERICUS       FAIR      59  55  88 CALM      29.99R
HOMERVILLE     FAIR      63  59  88 CALM      29.96R
$$

!GMZ750-755-770-775-220200
...Coastal and Buoy Obs...

STATION/POSITION TIME  TEMP    WIND        PRES    VSBY  WAVE
                       AIR SEA DIR/SP/G                  HT/PER
                 (UTC) (F)     (DEG/KT/KT) (MB)    (MI)  (FT/S)
KEATON BEACH     0100   70      CALM  /  2 1014.6R
CEDAR KEY        0100   73     300/  2/  3 1014.9
C TOWER          0100   74     310/  6/  6 1014.8R
APALACHICOLA BUO 0100   76 81   70/  6/  8 1014.4R         2/ 4
PANAMA CITY BUOY NOT AVBL
MOBILE BUOY      0033   74 79   50/  8/ 10 1015.8R         2/ 4
ORANGE BCH AL BU 0100   75 78  310/  6/  8 1014.8R         1/ 5
$$



USA.gov is the U.S. government's official web portal to all federal, state and local government web resources and services.